| time (UTC) | temp C | wind direction | speed KPH | gust KPH | rain 1hr cm | rain 24hr cm | rain mn cm | humidity % | barometer mb |
| 20260507220204 | 3 | 151 | 0.0 | 0.0 | 0.00 | 0.00 | 0.00 | 53 | 1020.6 |
| 20260507215149 | 3 | 151 | 0.0 | 0.0 | 0.00 | 0.00 | 0.00 | 51 | 1020.6 |
| 20260507214146 | 3 | 151 | 0.0 | 0.0 | 0.00 | 0.00 | 0.00 | 50 | 1020.6 |
| 20260507213146 | 3 | 151 | 1.6 | 4.8 | 0.00 | 0.00 | 0.00 | 50 | 1020.3 |
| 20260507212137 | 4 | 152 | 0.0 | 3.2 | 0.00 | 0.00 | 0.00 | 49 | 1020.3 |
| 20260507211135 | 4 | 152 | 0.0 | 0.0 | 0.00 | 0.00 | 0.00 | 48 | 1020.3 |
| 20260507210135 | 5 | 152 | 0.0 | 1.6 | 0.00 | 0.00 | 0.00 | 47 | 1020.2 |
| 20260507205132 | 5 | 151 | 0.0 | 6.4 | 0.00 | 0.00 | 0.00 | 48 | 1020.0 |
| 20260507204132 | 5 | 144 | 1.6 | 8.0 | 0.00 | 0.00 | 0.00 | 47 | 1020.0 |
| 20260507203136 | 5 | 127 | 3.2 | 11.3 | 0.00 | 0.00 | 0.00 | 49 | 1019.8 |
| 20260507202134 | 5 | 158 | 1.6 | 8.0 | 0.00 | 0.00 | 0.00 | 50 | 1019.7 |
| 20260507201136 | 6 | 177 | 3.2 | 11.3 | 0.00 | 0.00 | 0.00 | 53 | 1019.8 |
| 20260507200134 | 6 | 170 | 1.6 | 9.7 | 0.00 | 0.00 | 0.00 | 51 | 1019.7 |
| 20260507195132 | 6 | 160 | 3.2 | 11.3 | 0.00 | 0.00 | 0.00 | 53 | 1019.3 |
| 20260507194127 | 6 | 253 | 1.6 | 9.7 | 0.00 | 0.00 | 0.00 | 57 | 1019.3 |
| 20260507193127 | 6 | 169 | 1.6 | 6.4 | 0.00 | 0.00 | 0.00 | 53 | 1019.3 |
| 20260507192122 | 7 | 159 | 1.6 | 8.0 | 0.00 | 0.00 | 0.00 | 50 | 1019.1 |
| 20260507191126 | 7 | 159 | 3.2 | 9.7 | 0.00 | 0.00 | 0.00 | 49 | 1019.1 |
| 20260507190123 | 8 | 145 | 3.2 | 12.9 | 0.00 | 0.00 | 0.00 | 47 | 1018.9 |
| 20260507185120 | 8 | 162 | 1.6 | 9.7 | 0.00 | 0.00 | 0.00 | 48 | 1018.8 |
| 20260507184125 | 8 | 145 | 3.2 | 12.9 | 0.00 | 0.00 | 0.00 | 47 | 1018.8 |
| 20260507183109 | 9 | 150 | 3.2 | 11.3 | 0.00 | 0.00 | 0.00 | 45 | 1018.8 |
| 20260507182108 | 9 | 139 | 4.8 | 14.5 | 0.00 | 0.00 | 0.00 | 45 | 1018.6 |
| 20260507181107 | 10 | 248 | 4.8 | 12.9 | 0.00 | 0.00 | 0.00 | 45 | 1018.6 |
| 20260507180112 | 10 | 145 | 3.2 | 9.7 | 0.00 | 0.00 | 0.00 | 44 | 1018.7 |
| 20260507175107 | 11 | 144 | 3.2 | 11.3 | 0.00 | 0.00 | 0.00 | 44 | 1018.2 |
| 20260507174102 | 11 | 157 | 4.8 | 16.1 | 0.00 | 0.00 | 0.00 | 43 | 1018.2 |
| 20260507173054 | 11 | 146 | 6.4 | 17.7 | 0.00 | 0.00 | 0.00 | 43 | 1018.2 |
| 20260507172055 | 12 | 159 | 3.2 | 16.1 | 0.00 | 0.00 | 0.00 | 43 | 1018.1 |
| 20260507171100 | 12 | 147 | 4.8 | 14.5 | 0.00 | 0.00 | 0.00 | 42 | 1018.1 |
| 20260507170052 | 12 | 153 | 6.4 | 14.5 | 0.00 | 0.00 | 0.00 | 43 | 1017.7 |
| 20260507165049 | 12 | 159 | 6.4 | 19.3 | 0.00 | 0.00 | 0.00 | 43 | 1017.7 |
| 20260507164048 | 12 | 162 | 6.4 | 20.9 | 0.00 | 0.00 | 0.00 | 41 | 1017.7 |
| 20260507163051 | 13 | 136 | 4.8 | 16.1 | 0.00 | 0.00 | 0.00 | 43 | 1017.7 |
| 20260507162044 | 13 | 150 | 8.0 | 16.1 | 0.00 | 0.00 | 0.00 | 41 | 1017.4 |
| 20260507161048 | 13 | 134 | 9.7 | 20.9 | 0.00 | 0.00 | 0.00 | 40 | 1017.5 |
| 20260507160039 | 15 | 138 | 8.0 | 17.7 | 0.00 | 0.00 | 0.00 | 36 | 1017.4 |
| 20260507155037 | 16 | 70 | 3.2 | 8.0 | 0.00 | 0.00 | 0.00 | 33 | 1017.3 |
| 20260507154035 | 16 | 277 | 3.2 | 9.7 | 0.00 | 0.00 | 0.00 | 32 | 1017.3 |
| 20260507153031 | 16 | 259 | 3.2 | 8.0 | 0.00 | 0.00 | 0.00 | 30 | 1017.3 |
| 20260507152031 | 15 | 267 | 0.0 | 3.2 | 0.00 | 0.00 | 0.00 | 33 | 1017.4 |
| 20260507151040 | 14 | 329 | 0.0 | 3.2 | 0.00 | 0.00 | 0.00 | 35 | 1017.3 |
| 20260507150029 | 15 | 330 | 1.6 | 8.0 | 0.00 | 0.00 | 0.00 | 32 | 1017.2 |
| 20260507145009 | 16 | 19 | 1.6 | 8.0 | 0.00 | 0.00 | 0.00 | 36 | 1017.2 |
| 20260507144006 | 16 | 319 | 3.2 | 11.3 | 0.00 | 0.00 | 0.00 | 30 | 1017.2 |
| 20260507143007 | 17 | 74 | 1.6 | 8.0 | 0.00 | 0.00 | 0.00 | 33 | 1017.3 |
| 20260507142002 | 16 | 80 | 1.6 | 6.4 | 0.00 | 0.00 | 0.00 | 37 | 1017.4 |
| 20260507141003 | 16 | 55 | 1.6 | 8.0 | 0.00 | 0.00 | 0.00 | 35 | 1017.4 |
| 20260507140006 | 14 | 328 | 0.0 | 6.4 | 0.00 | 0.00 | 0.00 | 35 | 1017.3 |
| 20260507134956 | 13 | 306 | 3.2 | 11.3 | 0.00 | 0.00 | 0.00 | 35 | 1017.0 |
| 20260507133947 | 15 | 269 | 3.2 | 11.3 | 0.00 | 0.00 | 0.00 | 35 | 1017.1 |
| 20260507132938 | 15 | 355 | 0.0 | 6.4 | 0.00 | 0.00 | 0.00 | 37 | 1017.2 |
| 20260507131935 | 13 | 37 | 1.6 | 6.4 | 0.00 | 0.00 | 0.00 | 33 | 1017.0 |
| 20260507130934 | 15 | 70 | 3.2 | 9.7 | 0.00 | 0.00 | 0.00 | 36 | 1017.0 |
| 20260507125935 | 15 | 62 | 3.2 | 11.3 | 0.00 | 0.00 | 0.00 | 35 | 1017.1 |
| 20260507124935 | 14 | 46 | 8.0 | 12.9 | 0.00 | 0.00 | 0.00 | 32 | 1016.9 |
| 20260507123939 | 15 | 220 | 4.8 | 16.1 | 0.00 | 0.00 | 0.00 | 35 | 1017.0 |
| 20260507122935 | 15 | 327 | 1.6 | 11.3 | 0.00 | 0.00 | 0.00 | 35 | 1017.0 |
| 20260507121936 | 14 | 302 | 0.0 | 3.2 | 0.00 | 0.00 | 0.00 | 35 | 1017.0 |
| 20260507120937 | 13 | 61 | 0.0 | 4.8 | 0.00 | 0.00 | 0.00 | 41 | 1016.9 |
| 20260507115932 | 13 | 24 | 0.0 | 6.4 | 0.00 | 0.00 | 0.00 | 37 | 1016.9 |
| 20260507114935 | 13 | 53 | 3.2 | 9.7 | 0.00 | 0.00 | 0.00 | 38 | 1017.0 |
| 20260507113928 | 14 | 201 | 1.6 | 9.7 | 0.00 | 0.00 | 0.00 | 37 | 1017.0 |
| 20260507112932 | 12 | 274 | 1.6 | 6.4 | 0.00 | 0.00 | 0.00 | 38 | 1016.9 |
| 20260507111920 | 13 | 338 | 1.6 | 4.8 | 0.00 | 0.00 | 0.00 | 35 | 1016.9 |
| 20260507110920 | 13 | 57 | 3.2 | 9.7 | 0.00 | 0.00 | 0.00 | 39 | 1016.9 |
| 20260507105907 | 14 | 65 | 1.6 | 8.0 | 0.00 | 0.00 | 0.00 | 40 | 1016.9 |
| 20260507104908 | 15 | 94 | 1.6 | 8.0 | 0.00 | 0.00 | 0.00 | 36 | 1017.1 |
| 20260507103908 | 13 | 39 | 1.6 | 9.7 | 0.00 | 0.00 | 0.00 | 40 | 1017.0 |
| 20260507102908 | 13 | 345 | 1.6 | 9.7 | 0.00 | 0.00 | 0.00 | 39 | 1016.9 |
| 20260507101904 | 12 | 275 | 4.8 | 11.3 | 0.00 | 0.00 | 0.00 | 40 | 1016.8 |
| 20260507100906 | 12 | 227 | 4.8 | 12.9 | 0.00 | 0.00 | 0.00 | 39 | 1016.9 |
| 20260507095906 | 12 | 319 | 3.2 | 6.4 | 0.00 | 0.00 | 0.00 | 41 | 1016.8 |
| 20260507094903 | 12 | 10 | 1.6 | 8.0 | 0.00 | 0.00 | 0.00 | 43 | 1016.8 |
| 20260507093908 | 12 | 240 | 3.2 | 12.9 | 0.00 | 0.00 | 0.00 | 42 | 1016.8 |
| 20260507092904 | 12 | 255 | 1.6 | 11.3 | 0.00 | 0.00 | 0.00 | 45 | 1016.8 |
| 20260507091911 | 12 | 47 | 3.2 | 11.3 | 0.00 | 0.00 | 0.00 | 41 | 1016.8 |
| 20260507090904 | 12 | 338 | 6.4 | 14.5 | 0.00 | 0.00 | 0.00 | 41 | 1016.8 |
| 20260507085904 | 12 | 292 | 3.2 | 9.7 | 0.00 | 0.00 | 0.00 | 44 | 1016.7 |
| 20260507084907 | 11 | 319 | 3.2 | 9.7 | 0.00 | 0.00 | 0.00 | 43 | 1016.5 |
| 20260507083906 | 11 | 232 | 3.2 | 9.7 | 0.00 | 0.00 | 0.00 | 43 | 1016.5 |
| 20260507082904 | 10 | 331 | 4.8 | 11.3 | 0.00 | 0.00 | 0.00 | 47 | 1016.3 |
| 20260507081907 | 10 | 218 | 4.8 | 12.9 | 0.00 | 0.00 | 0.00 | 45 | 1016.3 |
| 20260507080907 | 10 | 316 | 3.2 | 8.0 | 0.00 | 0.00 | 0.00 | 44 | 1016.2 |
| 20260507075915 | 10 | 334 | 3.2 | 14.5 | 0.00 | 0.00 | 0.00 | 46 | 1016.2 |
| 20260507074907 | 10 | 254 | 1.6 | 9.7 | 0.00 | 0.00 | 0.00 | 50 | 1016.1 |
| 20260507073904 | 10 | 44 | 3.2 | 9.7 | 0.00 | 0.00 | 0.00 | 50 | 1016.1 |
| 20260507072907 | 10 | 276 | 1.6 | 8.0 | 0.00 | 0.00 | 0.00 | 51 | 1016.0 |
| 20260507071903 | 8 | 311 | 3.2 | 11.3 | 0.00 | 0.00 | 0.00 | 53 | 1016.0 |
| 20260507070904 | 8 | 313 | 1.6 | 9.7 | 0.00 | 0.00 | 0.00 | 53 | 1016.0 |
| 20260507065909 | 8 | 259 | 4.8 | 14.5 | 0.00 | 0.00 | 0.00 | 54 | 1016.0 |
| 20260507064906 | 7 | 245 | 3.2 | 12.9 | 0.00 | 0.00 | 0.00 | 54 | 1016.0 |
| 20260507063904 | 7 | 339 | 3.2 | 9.7 | 0.00 | 0.00 | 0.00 | 56 | 1015.9 |
| 20260507062906 | 6 | 304 | 4.8 | 9.7 | 0.00 | 0.00 | 0.00 | 52 | 1015.8 |
| 20260507061906 | 6 | 274 | 3.2 | 9.7 | 0.00 | 0.00 | 0.00 | 52 | 1015.9 |
| 20260507060909 | 6 | 212 | 3.2 | 11.3 | 0.00 | 0.00 | 0.00 | 53 | 1015.8 |
| 20260507055909 | 6 | 248 | 4.8 | 9.7 | 0.00 | 0.00 | 0.00 | 55 | 1015.8 |
| 20260507054907 | 5 | 228 | 3.2 | 8.0 | 0.00 | 0.00 | 0.00 | 61 | 1015.8 |
| 20260507053905 | 5 | 266 | 1.6 | 6.4 | 0.00 | 0.00 | 0.00 | 67 | 1015.7 |
| 20260507052907 | 4 | 240 | 1.6 | 6.4 | 0.00 | 0.00 | 0.00 | 74 | 1015.5 |
| 20260507051904 | 3 | 132 | 1.6 | 3.2 | 0.00 | 0.00 | 0.00 | 79 | 1015.5 |
| 20260507045904 | 1 | 125 | 0.0 | 0.0 | 0.00 | 0.00 | 0.00 | 86 | 1015.2 |
| 20260507044906 | 1 | 124 | 0.0 | 0.0 | 0.00 | 0.00 | 0.00 | 86 | 1014.9 |
| 20260507043907 | 1 | 124 | 0.0 | 0.0 | 0.00 | 0.00 | 0.00 | 87 | 1014.9 |
| 20260507042906 | 1 | 124 | 0.0 | 0.0 | 0.00 | 0.00 | 0.00 | 87 | 1014.8 |
| 20260507041907 | 0 | 124 | 0.0 | 0.0 | 0.00 | 0.00 | 0.00 | 87 | 1014.8 |
| 20260507040906 | 0 | 124 | 0.0 | 0.0 | 0.00 | 0.00 | 0.00 | 87 | 1014.7 |
| 20260507035906 | 0 | 124 | 0.0 | 0.0 | 0.00 | 0.00 | 0.00 | 88 | 1014.6 |
| 20260507034908 | 0 | 124 | 0.0 | 0.0 | 0.00 | 0.00 | 0.00 | 87 | 1014.3 |
| 20260507033907 | 0 | 124 | 0.0 | 0.0 | 0.00 | 0.00 | 0.00 | 86 | 1014.3 |
| 20260507032906 | 0 | 124 | 0.0 | 0.0 | 0.00 | 0.00 | 0.00 | 85 | 1014.3 |
| 20260507031909 | 0 | 124 | 0.0 | 0.0 | 0.00 | 0.00 | 0.00 | 84 | 1014.2 |
| 20260507030913 | 0 | 124 | 0.0 | 0.0 | 0.00 | 0.00 | 0.00 | 81 | 1014.2 |
| 20260507025904 | 0 | 124 | 0.0 | 0.0 | 0.00 | 0.00 | 0.00 | 81 | 1014.1 |
| 20260507024903 | 0 | 124 | 0.0 | 0.0 | 0.00 | 0.00 | 0.00 | 80 | 1014.1 |
| 20260507023907 | 0 | 124 | 0.0 | 0.0 | 0.00 | 0.00 | 0.00 | 80 | 1014.1 |
| 20260507022910 | 0 | 124 | 0.0 | 0.0 | 0.00 | 0.00 | 0.00 | 80 | 1014.1 |
| 20260507021907 | 0 | 124 | 0.0 | 0.0 | 0.00 | 0.00 | 0.00 | 79 | 1014.1 |
| 20260507020903 | 0 | 124 | 0.0 | 0.0 | 0.00 | 0.00 | 0.00 | 79 | 1014.1 |
| 20260507015906 | 0 | 124 | 0.0 | 0.0 | 0.00 | 0.00 | 0.00 | 79 | 1014.2 |
| 20260507014905 | 0 | 124 | 0.0 | 0.0 | 0.00 | 0.00 | 0.00 | 78 | 1014.2 |
| 20260507013903 | 0 | 124 | 0.0 | 0.0 | 0.00 | 0.00 | 0.00 | 78 | 1014.2 |
| 20260507012906 | 0 | 124 | 0.0 | 0.0 | 0.00 | 0.00 | 0.00 | 78 | 1014.2 |
| 20260507011849 | 0 | 124 | 0.0 | 0.0 | 0.00 | 0.00 | 0.00 | 77 | 1014.1 |
| 20260507010840 | 1 | 124 | 0.0 | 0.0 | 0.00 | 0.00 | 0.00 | 78 | 1014.1 |
| 20260507005832 | 1 | 124 | 0.0 | 0.0 | 0.00 | 0.00 | 0.00 | 78 | 1014.0 |
| 20260507004832 | 1 | 124 | 0.0 | 0.0 | 0.00 | 0.00 | 0.00 | 78 | 1014.1 |
| 20260507003832 | 1 | 124 | 0.0 | 0.0 | 0.00 | 0.00 | 0.00 | 77 | 1014.1 |
| 20260507002832 | 1 | 124 | 0.0 | 0.0 | 0.00 | 0.00 | 0.00 | 77 | 1014.1 |
| 20260507001832 | 1 | 124 | 0.0 | 0.0 | 0.00 | 0.00 | 0.00 | 78 | 1014.1 |
| 20260507000835 | 1 | 124 | 0.0 | 0.0 | 0.00 | 0.00 | 0.00 | 78 | 1014.1 |
| 20260506235834 | 1 | 124 | 0.0 | 0.0 | 0.00 | 0.00 | 0.00 | 77 | 1014.1 |
| 20260506234832 | 1 | 124 | 0.0 | 0.0 | 0.00 | 0.00 | 0.00 | 76 | 1014.1 |
| 20260506233825 | 1 | 124 | 0.0 | 1.6 | 0.00 | 0.00 | 0.00 | 75 | 1014.1 |
| 20260506232817 | 0 | 124 | 0.0 | 1.6 | 0.00 | 0.00 | 0.00 | 74 | 1014.2 |
| 20260506231812 | 0 | 124 | 0.0 | 0.0 | 0.00 | 0.00 | 0.00 | 75 | 1014.2 |
| 20260506230804 | 1 | 124 | 0.0 | 3.2 | 0.00 | 0.00 | 0.00 | 75 | 1014.2 |
| 20260506225809 | 0 | 124 | 0.0 | 0.0 | 0.00 | 0.00 | 0.00 | 76 | 1014.1 |
| 20260506224807 | 0 | 124 | 0.0 | 0.0 | 0.00 | 0.00 | 0.00 | 75 | 1014.1 |
| 20260506223807 | 0 | 124 | 0.0 | 0.0 | 0.00 | 0.00 | 0.00 | 75 | 1014.1 |
| 20260506222806 | 0 | 124 | 0.0 | 3.2 | 0.00 | 0.00 | 0.00 | 73 | 1013.9 |
| 20260506221806 | 0 | 124 | 1.6 | 3.2 | 0.00 | 0.00 | 0.00 | 72 | 1013.7 |